| time (UTC) | temp F | wind direction | speed MPH | gust MPH | rain 1hr in | rain 24hr in | rain mn in | humidity % | barometer mb |
| 20260902230636 | 67 | 0 | 3.0 | 8.0 | 0.00 | 0.01 | 0.02 | 76 | 1007.6 |
| 20260902230126 | 67 | 90 | 2.0 | 8.0 | 0.00 | 0.01 | 0.02 | 76 | 1007.6 |
| 20260902225616 | 67 | 0 | 2.0 | 8.0 | 0.00 | 0.01 | 0.02 | 76 | 1007.4 |
| 20260902225106 | 67 | 0 | 1.0 | 7.0 | 0.00 | 0.01 | 0.02 | 76 | 1007.2 |
| 20260902224555 | 67 | 0 | 2.0 | 9.0 | 0.00 | 0.01 | 0.02 | 76 | 1007.2 |
| 20260902223535 | 67 | 0 | 8.0 | 10.0 | 0.00 | 0.01 | 0.02 | 75 | 1007.4 |
| 20260902223025 | 67 | 0 | 4.0 | 11.0 | 0.00 | 0.01 | 0.02 | 75 | 1007.6 |
| 20260902222005 | 68 | 0 | 1.0 | 11.0 | 0.00 | 0.01 | 0.02 | 75 | 1007.4 |
| 20260902221455 | 68 | 0 | 3.0 | 11.0 | 0.00 | 0.01 | 0.02 | 74 | 1007.6 |
| 20260902215927 | 69 | 0 | 4.0 | 13.0 | 0.00 | 0.01 | 0.02 | 72 | 1007.7 |
| 20260902215415 | 69 | 0 | 4.0 | 13.0 | 0.00 | 0.01 | 0.02 | 71 | 1007.5 |
| 20260902214905 | 70 | 0 | 3.0 | 14.0 | 0.00 | 0.01 | 0.02 | 70 | 1007.6 |
| 20260902214354 | 70 | 45 | 9.0 | 14.0 | 0.00 | 0.01 | 0.02 | 70 | 1007.6 |
| 20260902213334 | 71 | 0 | 4.0 | 11.0 | 0.00 | 0.01 | 0.02 | 68 | 1007.9 |
| 20260902212824 | 72 | 0 | 4.0 | 12.0 | 0.00 | 0.01 | 0.02 | 68 | 1008.1 |
| 20260902212315 | 72 | 0 | 3.0 | 14.0 | 0.00 | 0.01 | 0.02 | 67 | 1007.9 |
| 20260902211804 | 72 | 0 | 5.0 | 14.0 | 0.00 | 0.01 | 0.02 | 67 | 1007.9 |
| 20260902210744 | 73 | 180 | 4.0 | 16.0 | 0.00 | 0.01 | 0.02 | 66 | 1007.8 |
| 20260902210234 | 73 | 0 | 5.0 | 17.0 | 0.00 | 0.01 | 0.02 | 65 | 1008.0 |
| 20260902205723 | 74 | 0 | 8.0 | 17.0 | 0.00 | 0.01 | 0.02 | 64 | 1008.0 |
| 20260902205214 | 74 | 0 | 8.0 | 15.0 | 0.00 | 0.01 | 0.02 | 64 | 1007.9 |
| 20260902203643 | 74 | 0 | 11.0 | 23.0 | 0.00 | 0.01 | 0.02 | 62 | 1007.9 |
| 20260902203133 | 74 | 45 | 9.0 | 23.0 | 0.00 | 0.01 | 0.02 | 62 | 1007.9 |
| 20260902202622 | 75 | 0 | 10.0 | 22.0 | 0.00 | 0.01 | 0.02 | 62 | 1007.9 |
| 20260902202112 | 75 | 315 | 8.0 | 22.0 | 0.00 | 0.01 | 0.02 | 62 | 1008.1 |
| 20260902201602 | 75 | 90 | 9.0 | 21.0 | 0.00 | 0.01 | 0.02 | 61 | 1008.1 |
| 20260902201052 | 75 | 0 | 14.0 | 21.0 | 0.00 | 0.01 | 0.02 | 61 | 1008.1 |
| 20260902200541 | 75 | 0 | 7.0 | 21.0 | 0.00 | 0.01 | 0.02 | 61 | 1008.3 |
| 20260902200032 | 75 | 45 | 4.0 | 25.0 | 0.00 | 0.01 | 0.02 | 60 | 1008.7 |
| 20260902195522 | 75 | 0 | 6.0 | 25.0 | 0.00 | 0.01 | 0.02 | 59 | 1008.5 |
| 20260902195012 | 75 | 180 | 5.0 | 26.0 | 0.00 | 0.01 | 0.02 | 58 | 1008.5 |
| 20260902194502 | 76 | 315 | 12.0 | 26.0 | 0.00 | 0.01 | 0.02 | 59 | 1008.6 |
| 20260902193952 | 76 | 270 | 7.0 | 25.0 | 0.00 | 0.01 | 0.02 | 58 | 1008.5 |
| 20260902193442 | 76 | 0 | 11.0 | 25.0 | 0.00 | 0.01 | 0.02 | 57 | 1008.5 |
| 20260902192931 | 76 | 0 | 6.0 | 23.0 | 0.00 | 0.01 | 0.02 | 57 | 1008.6 |
| 20260902192421 | 76 | 45 | 9.0 | 26.0 | 0.00 | 0.01 | 0.02 | 57 | 1008.7 |
| 20260902191911 | 76 | 315 | 12.0 | 26.0 | 0.00 | 0.01 | 0.02 | 56 | 1008.9 |
| 20260902191402 | 76 | 0 | 13.0 | 26.0 | 0.00 | 0.01 | 0.02 | 56 | 1008.9 |
| 20260902190340 | 76 | 0 | 8.0 | 26.0 | 0.00 | 0.01 | 0.02 | 57 | 1008.9 |
| 20260902185843 | 76 | 0 | 12.0 | 26.0 | 0.00 | 0.01 | 0.02 | 57 | 1008.9 |
| 20260902185321 | 76 | 270 | 4.0 | 23.0 | 0.00 | 0.01 | 0.02 | 59 | 1009.0 |
| 20260902184810 | 76 | 0 | 10.0 | 25.0 | 0.00 | 0.01 | 0.02 | 57 | 1009.3 |
| 20260902183750 | 76 | 270 | 11.0 | 31.0 | 0.00 | 0.01 | 0.02 | 57 | 1009.2 |
| 20260902183240 | 75 | 270 | 8.0 | 25.0 | 0.00 | 0.01 | 0.02 | 57 | 1009.4 |
| 20260902182730 | 75 | 0 | 8.0 | 25.0 | 0.00 | 0.01 | 0.02 | 58 | 1009.4 |
| 20260902182220 | 75 | 315 | 15.0 | 25.0 | 0.00 | 0.01 | 0.02 | 59 | 1009.6 |
| 20260902180650 | 75 | 0 | 16.0 | 33.0 | 0.00 | 0.01 | 0.02 | 58 | 1009.5 |
| 20260902175630 | 75 | 0 | 13.0 | 25.0 | 0.00 | 0.01 | 0.02 | 60 | 1009.9 |
| 20260902175119 | 75 | 0 | 11.0 | 25.0 | 0.00 | 0.01 | 0.02 | 61 | 1009.8 |
| 20260902174609 | 74 | 270 | 4.0 | 25.0 | 0.00 | 0.01 | 0.02 | 61 | 1009.9 |
| 20260902174100 | 74 | 315 | 15.0 | 23.0 | 0.00 | 0.01 | 0.02 | 61 | 1009.7 |
| 20260902173549 | 74 | 45 | 9.0 | 22.0 | 0.00 | 0.01 | 0.02 | 63 | 1010.1 |
| 20260902173039 | 74 | 45 | 8.0 | 25.0 | 0.00 | 0.01 | 0.02 | 63 | 1010.3 |
| 20260902172529 | 74 | 0 | 10.0 | 25.0 | 0.00 | 0.01 | 0.02 | 64 | 1010.4 |
| 20260902172019 | 74 | 0 | 11.0 | 24.0 | 0.00 | 0.01 | 0.02 | 64 | 1010.7 |
| 20260902170958 | 74 | 0 | 8.0 | 20.0 | 0.00 | 0.01 | 0.02 | 65 | 1011.3 |
| 20260902170448 | 74 | 0 | 7.0 | 20.0 | 0.00 | 0.01 | 0.02 | 65 | 1011.3 |
| 20260902165938 | 74 | 45 | 3.0 | 21.0 | 0.00 | 0.01 | 0.02 | 66 | 1011.4 |
| 20260902165428 | 73 | 45 | 11.0 | 21.0 | 0.00 | 0.01 | 0.02 | 66 | 1011.7 |
| 20260902164918 | 73 | 0 | 2.0 | 24.0 | 0.00 | 0.01 | 0.02 | 66 | 1011.6 |
| 20260902164408 | 73 | 0 | 4.0 | 24.0 | 0.00 | 0.01 | 0.02 | 67 | 1011.8 |
| 20260902163858 | 73 | 0 | 15.0 | 24.0 | 0.00 | 0.01 | 0.02 | 67 | 1011.9 |
| 20260902163348 | 73 | 225 | 5.0 | 22.0 | 0.00 | 0.01 | 0.02 | 68 | 1011.9 |
| 20260902162838 | 73 | 270 | 8.0 | 22.0 | 0.00 | 0.01 | 0.02 | 67 | 1012.1 |
| 20260902162327 | 72 | 0 | 5.0 | 17.0 | 0.00 | 0.01 | 0.02 | 68 | 1012.3 |
| 20260902161817 | 72 | 90 | 4.0 | 19.0 | 0.00 | 0.01 | 0.02 | 68 | 1012.5 |
| 20260902160806 | 72 | 45 | 9.0 | 23.0 | 0.00 | 0.01 | 0.02 | 68 | 1012.7 |
| 20260902160247 | 72 | 225 | 4.0 | 17.0 | 0.00 | 0.01 | 0.02 | 68 | 1012.6 |
| 20260902155736 | 71 | 90 | 6.0 | 20.0 | 0.00 | 0.01 | 0.02 | 70 | 1012.7 |
| 20260902155226 | 71 | 0 | 5.0 | 21.0 | 0.00 | 0.01 | 0.02 | 70 | 1012.9 |
| 20260902154716 | 71 | 315 | 4.0 | 21.0 | 0.00 | 0.01 | 0.02 | 70 | 1012.9 |
| 20260902154206 | 71 | 270 | 4.0 | 18.0 | 0.00 | 0.01 | 0.02 | 70 | 1013.1 |
| 20260902153656 | 70 | 0 | 11.0 | 27.0 | 0.00 | 0.01 | 0.02 | 70 | 1013.2 |
| 20260902153146 | 70 | 0 | 11.0 | 27.0 | 0.00 | 0.01 | 0.02 | 70 | 1013.2 |
| 20260902152636 | 70 | 0 | 7.0 | 18.0 | 0.00 | 0.01 | 0.02 | 71 | 1013.4 |
| 20260902152126 | 70 | 0 | 11.0 | 18.0 | 0.00 | 0.01 | 0.02 | 72 | 1013.5 |
| 20260902151105 | 69 | 0 | 7.0 | 24.0 | 0.00 | 0.01 | 0.02 | 72 | 1013.6 |
| 20260902150555 | 69 | 315 | 7.0 | 24.0 | 0.00 | 0.01 | 0.02 | 73 | 1013.7 |
| 20260902145025 | 68 | 0 | 10.0 | 20.0 | 0.00 | 0.01 | 0.02 | 74 | 1014.4 |
| 20260902144515 | 68 | 90 | 4.0 | 20.0 | 0.00 | 0.01 | 0.02 | 74 | 1014.2 |
| 20260902144005 | 68 | 0 | 7.0 | 22.0 | 0.00 | 0.01 | 0.02 | 75 | 1014.7 |
| 20260902143454 | 68 | 90 | 12.0 | 22.0 | 0.00 | 0.01 | 0.02 | 75 | 1014.4 |
| 20260902142945 | 67 | 0 | 6.0 | 19.0 | 0.00 | 0.01 | 0.02 | 75 | 1014.4 |
| 20260902142434 | 67 | 0 | 8.0 | 23.0 | 0.00 | 0.01 | 0.02 | 76 | 1014.5 |
| 20260902141925 | 67 | 0 | 8.0 | 23.0 | 0.00 | 0.01 | 0.02 | 76 | 1014.3 |
| 20260902141414 | 67 | 45 | 7.0 | 17.0 | 0.00 | 0.01 | 0.02 | 76 | 1014.3 |
| 20260902140905 | 66 | 0 | 5.0 | 21.0 | 0.00 | 0.01 | 0.02 | 78 | 1014.5 |
| 20260902140354 | 66 | 0 | 8.0 | 21.0 | 0.00 | 0.01 | 0.02 | 79 | 1014.5 |
| 20260902135845 | 65 | 0 | 7.0 | 18.0 | 0.00 | 0.01 | 0.02 | 79 | 1015.0 |
| 20260902135334 | 65 | 0 | 6.0 | 23.0 | 0.00 | 0.01 | 0.02 | 80 | 1015.0 |
| 20260902134824 | 65 | 270 | 9.0 | 23.0 | 0.00 | 0.01 | 0.02 | 81 | 1015.2 |
| 20260902134314 | 64 | 315 | 5.0 | 17.0 | 0.00 | 0.01 | 0.02 | 81 | 1015.0 |
| 20260902133804 | 64 | 0 | 8.0 | 17.0 | 0.00 | 0.01 | 0.02 | 81 | 1015.2 |
| 20260902133253 | 63 | 45 | 6.0 | 15.0 | 0.00 | 0.01 | 0.02 | 83 | 1015.4 |
| 20260902132744 | 63 | 0 | 4.0 | 17.0 | 0.00 | 0.01 | 0.02 | 84 | 1015.5 |
| 20260902132233 | 63 | 0 | 4.0 | 17.0 | 0.00 | 0.01 | 0.02 | 84 | 1015.4 |
| 20260902131726 | 62 | 0 | 3.0 | 12.0 | 0.00 | 0.01 | 0.02 | 84 | 1015.5 |
| 20260902130704 | 61 | 0 | 6.0 | 17.0 | 0.00 | 0.01 | 0.02 | 86 | 1015.5 |
| 20260902125133 | 58 | 0 | 10.0 | 18.0 | 0.00 | 0.01 | 0.02 | 89 | 1015.7 |
| 20260902124623 | 58 | 270 | 8.0 | 14.0 | 0.00 | 0.01 | 0.02 | 91 | 1015.8 |
| 20260902124113 | 57 | 45 | 3.0 | 17.0 | 0.00 | 0.01 | 0.02 | 93 | 1015.8 |
| 20260902123052 | 56 | 0 | 2.0 | 13.0 | 0.00 | 0.01 | 0.02 | 94 | 1016.1 |
| 20260902122542 | 56 | 0 | 8.0 | 13.0 | 0.00 | 0.01 | 0.02 | 94 | 1016.1 |
| 20260902122032 | 55 | 315 | 0.0 | 15.0 | 0.00 | 0.01 | 0.02 | 95 | 1016.4 |
| 20260902121521 | 55 | 0 | 4.0 | 15.0 | 0.00 | 0.01 | 0.02 | 95 | 1016.1 |
| 20260902121011 | 55 | 0 | 4.0 | 9.0 | 0.00 | 0.01 | 0.02 | 95 | 1016.2 |
| 20260902120502 | 54 | 0 | 2.0 | 9.0 | 0.00 | 0.01 | 0.02 | 95 | 1016.3 |
| 20260902115952 | 54 | 90 | 1.0 | 12.0 | 0.00 | 0.01 | 0.02 | 95 | 1016.2 |
| 20260902115441 | 54 | 0 | 4.0 | 12.0 | 0.00 | 0.01 | 0.02 | 95 | 1016.4 |
| 20260902114931 | 53 | 0 | 2.0 | 9.0 | 0.00 | 0.01 | 0.02 | 95 | 1016.3 |
| 20260902114421 | 53 | 45 | 2.0 | 9.0 | 0.00 | 0.01 | 0.02 | 95 | 1016.3 |
| 20260902113911 | 53 | 0 | 2.0 | 7.0 | 0.01 | 0.01 | 0.02 | 96 | 1016.3 |
| 20260902113401 | 53 | 45 | 4.0 | 6.0 | 0.01 | 0.01 | 0.02 | 95 | 1016.3 |
| 20260902112851 | 52 | 0 | 1.0 | 6.0 | 0.01 | 0.01 | 0.02 | 95 | 1016.2 |
| 20260902112340 | 51 | 0 | 1.0 | 4.0 | 0.01 | 0.01 | 0.02 | 95 | 1016.4 |
| 20260902111830 | 51 | 0 | 1.0 | 4.0 | 0.01 | 0.01 | 0.02 | 96 | 1016.2 |
| 20260902111320 | 50 | 0 | 2.0 | 4.0 | 0.01 | 0.01 | 0.02 | 96 | 1016.3 |
| 20260902110811 | 50 | 0 | 2.0 | 7.0 | 0.01 | 0.01 | 0.02 | 95 | 1016.2 |
| 20260902110300 | 50 | 0 | 3.0 | 7.0 | 0.01 | 0.01 | 0.02 | 95 | 1016.2 |
| 20260902105750 | 49 | 180 | 2.0 | 6.0 | 0.01 | 0.01 | 0.02 | 95 | 1016.1 |
| 20260902104730 | 49 | 0 | 2.0 | 7.0 | 0.01 | 0.01 | 0.02 | 96 | 1016.1 |
| 20260902104220 | 49 | 0 | 2.0 | 7.0 | 0.00 | 0.00 | 0.01 | 96 | 1016.0 |
| 20260902103710 | 49 | 0 | 2.0 | 7.0 | 0.00 | 0.00 | 0.01 | 96 | 1016.0 |
| 20260902103159 | 49 | 45 | 2.0 | 7.0 | 0.00 | 0.00 | 0.01 | 96 | 1015.9 |
| 20260902102649 | 49 | 0 | 2.0 | 7.0 | 0.00 | 0.00 | 0.01 | 96 | 1015.7 |
| 20260902102140 | 49 | 0 | 0.0 | 5.0 | 0.00 | 0.00 | 0.01 | 96 | 1015.8 |
| 20260902101629 | 49 | 0 | 1.0 | 0.0 | 0.00 | 0.00 | 0.01 | 96 | 1015.9 |
| 20260902101033 | 49 | 0 | 1.0 | 4.0 | 0.00 | 0.00 | 0.01 | 96 | 1015.9 |
| 20260902100522 | 49 | 0 | 0.0 | 4.0 | 0.00 | 0.00 | 0.01 | 96 | 1015.8 |
| 20260902100013 | 49 | 45 | 2.0 | 4.0 | 0.00 | 0.00 | 0.01 | 95 | 1015.8 |
| 20260902095502 | 50 | 0 | 0.0 | 4.0 | 0.00 | 0.00 | 0.01 | 96 | 1015.8 |
| 20260902094954 | 50 | 0 | 1.0 | 4.0 | 0.00 | 0.00 | 0.01 | 96 | 1015.8 |
| 20260902094451 | 50 | 90 | 2.0 | 4.0 | 0.00 | 0.00 | 0.01 | 96 | 1015.8 |
| 20260902093932 | 50 | 90 | 1.0 | 4.0 | 0.00 | 0.00 | 0.01 | 96 | 1016.0 |
| 20260902093422 | 50 | 90 | 2.0 | 7.0 | 0.00 | 0.00 | 0.01 | 96 | 1015.6 |
| 20260902092912 | 50 | 135 | 2.0 | 8.0 | 0.00 | 0.00 | 0.01 | 95 | 1015.6 |
| 20260902092401 | 50 | 0 | 3.0 | 8.0 | 0.00 | 0.00 | 0.01 | 95 | 1015.6 |
| 20260902091851 | 50 | 45 | 2.0 | 8.0 | 0.00 | 0.00 | 0.01 | 95 | 1015.5 |
| 20260902091341 | 50 | 90 | 4.0 | 8.0 | 0.00 | 0.00 | 0.01 | 95 | 1015.4 |
| 20260902090835 | 49 | 0 | 3.0 | 8.0 | 0.00 | 0.00 | 0.01 | 96 | 1015.5 |
| 20260902085811 | 49 | 90 | 2.0 | 8.0 | 0.00 | 0.00 | 0.01 | 95 | 1015.3 |
| 20260902085301 | 49 | 0 | 2.0 | 8.0 | 0.00 | 0.00 | 0.01 | 96 | 1015.3 |
| 20260902084751 | 49 | 0 | 3.0 | 8.0 | 0.00 | 0.00 | 0.01 | 95 | 1015.1 |
| 20260902084241 | 49 | 45 | 4.0 | 9.0 | 0.00 | 0.00 | 0.01 | 95 | 1015.4 |
| 20260902083731 | 49 | 0 | 3.0 | 9.0 | 0.00 | 0.00 | 0.01 | 95 | 1015.3 |
| 20260902083221 | 50 | 0 | 2.0 | 8.0 | 0.00 | 0.00 | 0.01 | 96 | 1015.6 |
| 20260902082710 | 50 | 45 | 4.0 | 7.0 | 0.00 | 0.00 | 0.01 | 95 | 1015.4 |
| 20260902082201 | 50 | 0 | 1.0 | 7.0 | 0.00 | 0.00 | 0.01 | 95 | 1015.7 |
| 20260902081650 | 50 | 45 | 4.0 | 7.0 | 0.00 | 0.00 | 0.01 | 95 | 1015.5 |
| 20260902081140 | 50 | 45 | 2.0 | 5.0 | 0.00 | 0.00 | 0.01 | 95 | 1015.9 |
| 20260902080630 | 50 | 0 | 2.0 | 5.0 | 0.00 | 0.00 | 0.01 | 95 | 1015.9 |
| 20260902080120 | 50 | 0 | 2.0 | 5.0 | 0.00 | 0.00 | 0.01 | 95 | 1015.7 |
| 20260902075100 | 50 | 90 | 2.0 | 7.0 | 0.00 | 0.00 | 0.01 | 95 | 1015.6 |
| 20260902074550 | 50 | 90 | 2.0 | 7.0 | 0.00 | 0.00 | 0.01 | 95 | 1015.8 |
| 20260902074039 | 50 | 90 | 2.0 | 4.0 | 0.00 | 0.00 | 0.01 | 95 | 1015.7 |
| 20260902073530 | 50 | 90 | 2.0 | 4.0 | 0.00 | 0.00 | 0.01 | 95 | 1015.7 |
| 20260902073019 | 50 | 90 | 1.0 | 6.0 | 0.00 | 0.00 | 0.01 | 95 | 1015.7 |
| 20260902071449 | 50 | 0 | 5.0 | 8.0 | 0.00 | 0.00 | 0.01 | 95 | 1015.8 |
| 20260902070939 | 50 | 0 | 2.0 | 6.0 | 0.00 | 0.00 | 0.01 | 95 | 1015.7 |
| 20260902070428 | 50 | 90 | 2.0 | 4.0 | 0.00 | 0.00 | 0.01 | 95 | 1015.7 |
| 20260902065918 | 50 | 90 | 1.0 | 4.0 | 0.00 | 0.00 | 0.01 | 95 | 1015.9 |
| 20260902065409 | 51 | 0 | 1.0 | 4.0 | 0.00 | 0.00 | 0.01 | 95 | 1015.8 |
| 20260902064859 | 51 | 0 | 1.0 | 4.0 | 0.00 | 0.00 | 0.01 | 95 | 1015.9 |
| 20260902063838 | 51 | 0 | 0.0 | 4.0 | 0.00 | 0.00 | 0.01 | 95 | 1015.9 |
| 20260902063327 | 51 | 0 | 2.0 | 4.0 | 0.00 | 0.00 | 0.01 | 95 | 1016.0 |
| 20260902062818 | 51 | 90 | 2.0 | 4.0 | 0.00 | 0.00 | 0.01 | 95 | 1016.1 |
| 20260902062307 | 51 | 0 | 1.0 | 4.0 | 0.00 | 0.00 | 0.01 | 95 | 1016.3 |
| 20260902061757 | 51 | 0 | 1.0 | 5.0 | 0.00 | 0.00 | 0.01 | 95 | 1016.3 |
| 20260902060737 | 51 | 45 | 2.0 | 0.0 | 0.00 | 0.00 | 0.01 | 95 | 1016.4 |
| 20260902060147 | 51 | 0 | 2.0 | 0.0 | 0.00 | 0.00 | 0.01 | 95 | 1016.5 |
| 20260902055929 | 51 | 0 | 2.0 | 4.0 | 0.01 | 0.01 | 0.01 | 95 | 1016.6 |
| 20260902055419 | 51 | 0 | 1.0 | 4.0 | 0.01 | 0.01 | 0.01 | 95 | 1016.5 |
| 20260902054909 | 51 | 45 | 2.0 | 4.0 | 0.01 | 0.01 | 0.01 | 95 | 1016.7 |
| 20260902054358 | 51 | 90 | 2.0 | 4.0 | 0.01 | 0.01 | 0.01 | 95 | 1016.6 |
| 20260902052829 | 51 | 0 | 2.0 | 4.0 | 0.00 | 0.00 | 0.00 | 95 | 1016.8 |
| 20260902052330 | 51 | 0 | 2.0 | 4.0 | 0.00 | 0.00 | 0.00 | 95 | 1016.9 |
| 20260902051808 | 51 | 45 | 0.0 | 3.0 | 0.00 | 0.00 | 0.00 | 95 | 1017.2 |
| 20260902050748 | 51 | 0 | 1.0 | 4.0 | 0.00 | 0.00 | 0.00 | 95 | 1017.2 |
| 20260902050238 | 51 | 90 | 1.0 | 3.0 | 0.00 | 0.00 | 0.00 | 95 | 1017.1 |
| 20260902045728 | 51 | 45 | 1.0 | 4.0 | 0.00 | 0.00 | 0.00 | 95 | 1017.0 |
| 20260902045218 | 52 | 0 | 3.0 | 6.0 | 0.00 | 0.00 | 0.00 | 95 | 1016.9 |
| 20260902044708 | 52 | 0 | 2.0 | 6.0 | 0.00 | 0.00 | 0.00 | 95 | 1017.0 |
| 20260902044157 | 52 | 0 | 2.0 | 5.0 | 0.00 | 0.00 | 0.00 | 95 | 1017.2 |
| 20260902043647 | 52 | 45 | 2.0 | 5.0 | 0.00 | 0.00 | 0.00 | 95 | 1017.2 |
| 20260902043137 | 52 | 90 | 2.0 | 4.0 | 0.00 | 0.00 | 0.00 | 95 | 1017.3 |
| 20260902042627 | 52 | 0 | 2.0 | 4.0 | 0.00 | 0.00 | 0.00 | 95 | 1017.3 |
| 20260902042118 | 52 | 45 | 2.0 | 4.0 | 0.00 | 0.00 | 0.00 | 95 | 1017.4 |
| 20260902041607 | 51 | 90 | 1.0 | 2.0 | 0.00 | 0.00 | 0.00 | 95 | 1017.4 |
| 20260902041057 | 52 | 90 | 1.0 | 4.0 | 0.00 | 0.00 | 0.00 | 95 | 1017.3 |
| 20260902040547 | 52 | 90 | 2.0 | 5.0 | 0.00 | 0.00 | 0.00 | 95 | 1017.2 |
| 20260902040047 | 52 | 45 | 2.0 | 5.0 | 0.00 | 0.00 | 0.00 | 95 | 1017.6 |
| 20260902035527 | 52 | 90 | 2.0 | 4.0 | 0.00 | 0.00 | 0.00 | 95 | 1017.6 |
| 20260902035017 | 52 | 45 | 2.0 | 4.0 | 0.00 | 0.00 | 0.00 | 95 | 1017.6 |
| 20260902034510 | 52 | 0 | 2.0 | 4.0 | 0.00 | 0.00 | 0.00 | 95 | 1017.5 |
| 20260902033956 | 53 | 90 | 1.0 | 4.0 | 0.00 | 0.00 | 0.00 | 95 | 1017.6 |
| 20260902033446 | 53 | 0 | 1.0 | 2.0 | 0.00 | 0.00 | 0.00 | 95 | 1017.5 |
| 20260902032936 | 53 | 0 | 1.0 | 3.0 | 0.00 | 0.00 | 0.00 | 95 | 1017.5 |
| 20260902032426 | 54 | 0 | 2.0 | 3.0 | 0.00 | 0.00 | 0.00 | 95 | 1017.9 |
| 20260902031406 | 54 | 45 | 2.0 | 4.0 | 0.00 | 0.00 | 0.00 | 95 | 1018.1 |
| 20260902030856 | 54 | 0 | 1.0 | 4.0 | 0.00 | 0.00 | 0.00 | 95 | 1018.1 |
| 20260902025835 | 54 | 0 | 2.0 | 3.0 | 0.00 | 0.00 | 0.20 | 95 | 1018.3 |
| 20260902025325 | 54 | 45 | 2.0 | 4.0 | 0.00 | 0.00 | 0.20 | 95 | 1018.4 |
| 20260902024815 | 54 | 90 | 1.0 | 4.0 | 0.00 | 0.00 | 0.20 | 95 | 1018.4 |
| 20260902023253 | 54 | 90 | 2.0 | 4.0 | 0.00 | 0.00 | 0.20 | 95 | 1018.4 |
| 20260902022224 | 54 | 45 | 1.0 | 3.0 | 0.00 | 0.00 | 0.20 | 95 | 1018.5 |
| 20260902021205 | 55 | 90 | 0.0 | 3.0 | 0.00 | 0.00 | 0.20 | 95 | 1018.4 |
| 20260902020655 | 55 | 90 | 2.0 | 4.0 | 0.00 | 0.00 | 0.20 | 95 | 1018.3 |
| 20260902020144 | 55 | 90 | 0.0 | 4.0 | 0.00 | 0.00 | 0.20 | 94 | 1018.5 |
| 20260902015124 | 55 | 90 | 2.0 | 4.0 | 0.00 | 0.00 | 0.20 | 94 | 1018.1 |
| 20260902014104 | 56 | 90 | 2.0 | 3.0 | 0.00 | 0.00 | 0.20 | 94 | 1018.0 |
| 20260902013553 | 56 | 90 | 2.0 | 3.0 | 0.00 | 0.00 | 0.20 | 94 | 1018.1 |
| 20260902013044 | 56 | 90 | 0.0 | 2.0 | 0.00 | 0.00 | 0.20 | 94 | 1017.9 |
| 20260902012533 | 56 | 90 | 1.0 | 3.0 | 0.00 | 0.00 | 0.20 | 94 | 1017.9 |
| 20260902012023 | 56 | 90 | 2.0 | 3.0 | 0.00 | 0.00 | 0.20 | 94 | 1017.9 |
| 20260902011513 | 56 | 90 | 1.0 | 3.0 | 0.00 | 0.00 | 0.20 | 94 | 1017.8 |
| 20260902011003 | 56 | 90 | 1.0 | 3.0 | 0.00 | 0.00 | 0.20 | 94 | 1018.0 |
| 20260902010453 | 56 | 45 | 1.0 | 3.0 | 0.00 | 0.00 | 0.20 | 94 | 1018.1 |
| 20260902005942 | 57 | 90 | 2.0 | 3.0 | 0.00 | 0.00 | 0.20 | 94 | 1018.1 |
| 20260902005432 | 57 | 90 | 1.0 | 2.0 | 0.00 | 0.00 | 0.20 | 94 | 1018.0 |
| 20260902004923 | 57 | 90 | 0.0 | 1.0 | 0.00 | 0.00 | 0.20 | 94 | 1018.3 |
| 20260902004412 | 57 | 90 | 0.0 | 2.0 | 0.00 | 0.00 | 0.20 | 94 | 1018.2 |
| 20260902003904 | 57 | 90 | 0.0 | 2.0 | 0.00 | 0.00 | 0.20 | 94 | 1018.3 |
| 20260902003353 | 58 | 90 | 1.0 | 2.0 | 0.00 | 0.00 | 0.20 | 94 | 1018.3 |
| 20260902001822 | 58 | 90 | 0.0 | 3.0 | 0.00 | 0.00 | 0.20 | 94 | 1018.2 |
| 20260902001312 | 58 | 90 | 1.0 | 3.0 | 0.00 | 0.00 | 0.20 | 94 | 1018.1 |
| 20260902000801 | 58 | 0 | 0.0 | 2.0 | 0.00 | 0.00 | 0.20 | 93 | 1018.2 |
| 20260902000251 | 58 | 0 | 0.0 | 2.0 | 0.00 | 0.00 | 0.20 | 93 | 1018.1 |
| 20260901235741 | 57 | 0 | 1.0 | 2.0 | 0.00 | 0.00 | 0.20 | 93 | 1018.2 |
| 20260901235231 | 57 | 0 | 1.0 | 2.0 | 0.00 | 0.00 | 0.20 | 93 | 1017.8 |
| 20260901233701 | 58 | 0 | 2.0 | 2.0 | 0.00 | 0.00 | 0.20 | 93 | 1017.9 |
| 20260901233150 | 58 | 90 | 1.0 | 2.0 | 0.00 | 0.00 | 0.20 | 93 | 1018.0 |
| 20260901231620 | 58 | 0 | 0.0 | 0.0 | 0.00 | 0.00 | 0.20 | 93 | 1018.0 |